STARLINK-32248

Last updated on Fri Oct 04 2024 00:02:04 GMT+0000 (Coordinated Universal Time)

1 61219U 24171V 24277.58334491 -.01380148 00000+0 -11470-1 0 9993 2 61219 53.1606 231.8538 0001068 124.0899 164.8711 15.72369314 3282
UTC large
Height (km)
Speed (km/s)
/
Latitude / Longitude
Inclination (degrees)
Orbital Period (minutes)
Azimuth
Elevation
Range (km)
Doppler Factor

Next 0 passes for location: London (51.5072 / 0.1276)

Sorry there are no passes over London.